| time (UTC) | temp F | wind direction | speed knots | gust knots | rain 1hr in | rain 24hr in | rain mn in | humidity % | barometer mb |
| 20260508150505 | 63 | 341 | 5.2 | 8.7 | 0.00 | 0.00 | 0.00 | 53 | 1016.2 |
| 20260508144505 | 65 | 90 | 5.2 | 12.2 | 0.00 | 0.00 | 0.00 | 54 | 1015.9 |
| 20260508144004 | 65 | 119 | 5.2 | 12.2 | 0.00 | 0.00 | 0.00 | 49 | 1016.3 |
| 20260508143505 | 63 | 274 | 0.9 | 7.0 | 0.00 | 0.00 | 0.00 | 50 | 1016.3 |
| 20260508143004 | 64 | 105 | 3.5 | 13.0 | 0.00 | 0.00 | 0.00 | 51 | 1016.3 |
| 20260508141505 | 63 | 138 | 1.7 | 12.2 | 0.00 | 0.00 | 0.00 | 51 | 1016.3 |
| 20260508141004 | 63 | 129 | 2.6 | 8.7 | 0.00 | 0.00 | 0.00 | 52 | 1016.3 |
| 20260508134504 | 64 | 111 | 6.1 | 13.0 | 0.00 | 0.00 | 0.00 | 52 | 1016.6 |
| 20260508134004 | 65 | 90 | 3.5 | 8.7 | 0.00 | 0.00 | 0.00 | 52 | 1016.6 |
| 20260508133504 | 65 | 93 | 2.6 | 8.7 | 0.00 | 0.00 | 0.00 | 53 | 1016.6 |
| 20260508133005 | 65 | 127 | 2.6 | 7.0 | 0.00 | 0.00 | 0.00 | 53 | 1016.6 |
| 20260508131504 | 65 | 223 | 0.9 | 8.7 | 0.00 | 0.00 | 0.00 | 52 | 1016.6 |
| 20260508131004 | 64 | 88 | 5.2 | 8.7 | 0.00 | 0.00 | 0.00 | 52 | 1016.6 |
| 20260508130504 | 64 | 132 | 2.6 | 6.1 | 0.00 | 0.00 | 0.00 | 53 | 1016.6 |
| 20260508130004 | 64 | 142 | 5.2 | 13.0 | 0.00 | 0.00 | 0.00 | 51 | 1016.6 |
| 20260508124504 | 63 | 120 | 5.2 | 7.0 | 0.00 | 0.00 | 0.00 | 55 | 1016.9 |
| 20260508124005 | 63 | 160 | 2.6 | 11.3 | 0.00 | 0.00 | 0.00 | 55 | 1016.9 |
| 20260508123504 | 63 | 116 | 6.1 | 11.3 | 0.00 | 0.00 | 0.00 | 55 | 1016.9 |
| 20260508123004 | 63 | 95 | 3.5 | 13.0 | 0.00 | 0.00 | 0.00 | 54 | 1016.9 |
| 20260508121504 | 62 | 135 | 5.2 | 12.2 | 0.00 | 0.00 | 0.00 | 57 | 1017.3 |
| 20260508121004 | 62 | 191 | 4.3 | 11.3 | 0.00 | 0.00 | 0.00 | 60 | 1017.2 |
| 20260508120504 | 63 | 26 | 4.3 | 8.7 | 0.00 | 0.00 | 0.00 | 62 | 1016.9 |
| 20260508120005 | 64 | 348 | 2.6 | 8.7 | 0.00 | 0.00 | 0.00 | 57 | 1017.2 |
| 20260508113504 | 61 | 123 | 2.6 | 7.0 | 0.00 | 0.00 | 0.00 | 64 | 1016.9 |
| 20260508113005 | 61 | 28 | 3.5 | 11.3 | 0.00 | 0.00 | 0.00 | 64 | 1017.2 |
| 20260508111505 | 60 | 12 | 1.7 | 8.7 | 0.00 | 0.00 | 0.00 | 69 | 1017.3 |
| 20260508111004 | 61 | 125 | 0.9 | 8.7 | 0.00 | 0.00 | 0.00 | 66 | 1017.3 |
| 20260508110504 | 60 | 144 | 3.5 | 8.7 | 0.00 | 0.00 | 0.00 | 67 | 1017.3 |
| 20260508110004 | 61 | 129 | 3.5 | 8.7 | 0.00 | 0.00 | 0.00 | 69 | 1017.4 |
| 20260508104504 | 60 | 123 | 5.2 | 8.7 | 0.00 | 0.00 | 0.00 | 71 | 1017.6 |
| 20260508104004 | 60 | 44 | 3.5 | 7.0 | 0.00 | 0.00 | 0.00 | 72 | 1017.6 |
| 20260508103504 | 59 | 142 | 2.6 | 7.0 | 0.00 | 0.00 | 0.00 | 73 | 1017.6 |
| 20260508103004 | 59 | 145 | 2.6 | 11.3 | 0.00 | 0.00 | 0.00 | 72 | 1017.6 |
| 20260508101004 | 59 | 36 | 2.6 | 6.1 | 0.00 | 0.00 | 0.00 | 76 | 1017.9 |
| 20260508100504 | 59 | 358 | 4.3 | 11.3 | 0.00 | 0.00 | 0.00 | 75 | 1017.6 |
| 20260508100004 | 58 | 307 | 5.2 | 11.3 | 0.00 | 0.00 | 0.00 | 77 | 1017.6 |
| 20260508094504 | 59 | 99 | 2.6 | 6.1 | 0.00 | 0.00 | 0.00 | 78 | 1017.6 |
| 20260508093506 | 58 | 5 | 2.6 | 6.1 | 0.00 | 0.00 | 0.00 | 78 | 1017.6 |
| 20260508093005 | 57 | 327 | 1.7 | 7.0 | 0.00 | 0.00 | 0.00 | 79 | 1017.6 |
| 20260508091506 | 55 | 86 | 2.6 | 7.0 | 0.00 | 0.00 | 0.00 | 83 | 1017.9 |
| 20260508090505 | 54 | 349 | 0.9 | 4.3 | 0.00 | 0.00 | 0.00 | 83 | 1018.2 |
| 20260508084506 | 53 | 353 | 1.7 | 7.0 | 0.00 | 0.00 | 0.00 | 86 | 1017.9 |
| 20260508084006 | 53 | 121 | 4.3 | 7.0 | 0.00 | 0.00 | 0.00 | 85 | 1017.9 |
| 20260508083507 | 53 | 335 | 2.6 | 4.3 | 0.00 | 0.00 | 0.00 | 86 | 1017.9 |
| 20260508083005 | 53 | 110 | 3.5 | 8.7 | 0.00 | 0.00 | 0.00 | 86 | 1017.7 |
| 20260508081506 | 52 | 337 | 0.9 | 7.0 | 0.00 | 0.00 | 0.00 | 87 | 1018.0 |
| 20260508081006 | 52 | 125 | 4.3 | 7.0 | 0.00 | 0.00 | 0.00 | 87 | 1017.6 |
| 20260508080505 | 52 | 97 | 1.7 | 2.6 | 0.00 | 0.00 | 0.00 | 87 | 1017.9 |
| 20260508080005 | 52 | 83 | 1.7 | 7.0 | 0.00 | 0.00 | 0.00 | 88 | 1017.9 |
| 20260508074006 | 51 | 89 | 2.6 | 7.0 | 0.00 | 0.00 | 0.00 | 88 | 1017.9 |
| 20260508073005 | 51 | 90 | 1.7 | 6.1 | 0.00 | 0.00 | 0.00 | 89 | 1017.9 |
| 20260508071005 | 50 | 92 | 2.6 | 6.1 | 0.00 | 0.00 | 0.00 | 89 | 1017.9 |
| 20260508070506 | 50 | 116 | 3.5 | 7.0 | 0.00 | 0.00 | 0.00 | 90 | 1017.9 |
| 20260508070005 | 49 | 91 | 3.5 | 6.1 | 0.00 | 0.00 | 0.00 | 90 | 1017.9 |
| 20260508064006 | 49 | 91 | 2.6 | 6.1 | 0.00 | 0.00 | 0.00 | 91 | 1017.9 |
| 20260508061506 | 49 | 35 | 1.7 | 2.6 | 0.00 | 0.00 | 0.00 | 92 | 1017.6 |
| 20260508060505 | 48 | 184 | 1.7 | 4.3 | 0.00 | 0.00 | 0.00 | 93 | 1017.6 |
| 20260508060006 | 48 | 115 | 2.6 | 6.1 | 0.00 | 0.00 | 0.00 | 93 | 1017.6 |
| 20260508054505 | 48 | 79 | 2.6 | 7.0 | 0.00 | 0.00 | 0.00 | 93 | 1017.5 |
| 20260508053507 | 48 | 102 | 1.7 | 4.3 | 0.00 | 0.00 | 0.00 | 93 | 1017.6 |
| 20260508053005 | 48 | 83 | 2.6 | 4.3 | 0.00 | 0.00 | 0.00 | 93 | 1017.3 |
| 20260508051506 | 48 | 68 | 0.0 | 4.3 | 0.00 | 0.00 | 0.00 | 94 | 1017.3 |
| 20260508051006 | 48 | 115 | 1.7 | 4.3 | 0.00 | 0.00 | 0.00 | 94 | 1017.4 |
| 20260508050506 | 47 | 83 | 0.9 | 6.1 | 0.00 | 0.00 | 0.00 | 94 | 1017.3 |
| 20260508050005 | 48 | 76 | 0.0 | 7.0 | 0.00 | 0.00 | 0.00 | 94 | 1017.3 |
| 20260508044506 | 47 | 358 | 0.0 | 2.6 | 0.00 | 0.00 | 0.00 | 95 | 1016.9 |
| 20260508044006 | 47 | 352 | 0.9 | 2.6 | 0.00 | 0.00 | 0.00 | 95 | 1016.9 |
| 20260508043507 | 47 | 135 | 0.0 | 0.0 | 0.00 | 0.00 | 0.00 | 96 | 1016.9 |
| 20260508043005 | 47 | 80 | 0.0 | 1.7 | 0.00 | 0.00 | 0.00 | 96 | 1016.9 |
| 20260508041506 | 47 | 102 | 0.9 | 1.7 | 0.00 | 0.00 | 0.00 | 96 | 1016.6 |
| 20260508041005 | 47 | 133 | 0.0 | 1.7 | 0.00 | 0.00 | 0.00 | 96 | 1016.6 |
| 20260508040505 | 47 | 138 | 0.0 | 2.6 | 0.00 | 0.00 | 0.00 | 96 | 1016.9 |
| 20260508040005 | 47 | 105 | 1.7 | 2.6 | 0.00 | 0.00 | 0.00 | 97 | 1016.9 |
| 20260508034506 | 47 | 167 | 0.0 | 2.6 | 0.00 | 0.00 | 0.00 | 97 | 1016.9 |
| 20260508034006 | 47 | 13 | 0.0 | 0.0 | 0.00 | 0.00 | 0.00 | 97 | 1016.6 |
| 20260508033506 | 47 | 99 | 0.9 | 4.3 | 0.00 | 0.00 | 0.00 | 97 | 1016.6 |
| 20260508033006 | 47 | 84 | 0.0 | 2.6 | 0.00 | 0.00 | 0.00 | 97 | 1016.8 |
| 20260508031505 | 47 | 149 | 0.0 | 1.7 | 0.00 | 0.00 | 0.00 | 97 | 1016.9 |
| 20260508031005 | 47 | 113 | 0.0 | 2.6 | 0.00 | 0.00 | 0.00 | 97 | 1016.9 |
| 20260508030505 | 47 | 236 | 0.0 | 0.0 | 0.00 | 0.00 | 0.00 | 98 | 1016.6 |
| 20260508030005 | 47 | 249 | 0.0 | 0.0 | 0.00 | 0.00 | 0.00 | 98 | 1016.6 |
| 20260508024505 | 46 | 233 | 0.0 | 0.0 | 0.00 | 0.00 | 0.00 | 98 | 1016.6 |
| 20260508021505 | 45 | 283 | 0.0 | 0.0 | 0.00 | 0.00 | 0.00 | 98 | 1016.9 |
| 20260508021005 | 45 | 283 | 0.0 | 0.0 | 0.00 | 0.00 | 0.00 | 98 | 1016.6 |
| 20260508020505 | 44 | 283 | 0.0 | 0.0 | 0.00 | 0.00 | 0.00 | 98 | 1016.6 |
| 20260508020006 | 44 | 283 | 0.0 | 0.0 | 0.00 | 0.00 | 0.00 | 98 | 1016.6 |
| 20260508014505 | 43 | 283 | 0.0 | 0.0 | 0.00 | 0.00 | 0.00 | 98 | 1016.6 |
| 20260508014006 | 43 | 283 | 0.0 | 0.0 | 0.00 | 0.00 | 0.00 | 98 | 1016.6 |
| 20260508013505 | 43 | 283 | 0.0 | 0.0 | 0.00 | 0.00 | 0.00 | 98 | 1016.6 |
| 20260508013006 | 42 | 283 | 0.0 | 0.0 | 0.00 | 0.00 | 0.00 | 98 | 1016.6 |
| 20260508011506 | 42 | 283 | 0.0 | 0.0 | 0.00 | 0.00 | 0.00 | 98 | 1016.6 |
| 20260508011005 | 41 | 283 | 0.0 | 0.0 | 0.00 | 0.00 | 0.00 | 98 | 1016.6 |
| 20260508010504 | 41 | 283 | 0.0 | 0.0 | 0.00 | 0.00 | 0.00 | 98 | 1016.6 |
| 20260508010005 | 41 | 283 | 0.0 | 0.0 | 0.00 | 0.00 | 0.00 | 98 | 1016.4 |
| 20260508004505 | 41 | 283 | 0.0 | 0.0 | 0.00 | 0.00 | 0.00 | 98 | 1016.6 |
| 20260508004005 | 41 | 283 | 0.0 | 0.0 | 0.00 | 0.00 | 0.00 | 98 | 1016.6 |
| 20260508003006 | 42 | 283 | 0.0 | 1.7 | 0.00 | 0.00 | 0.00 | 98 | 1016.6 |
| 20260508001505 | 41 | 283 | 0.0 | 0.0 | 0.00 | 0.00 | 0.00 | 97 | 1016.6 |
| 20260508001005 | 41 | 283 | 0.0 | 0.0 | 0.00 | 0.00 | 0.00 | 97 | 1016.6 |
| 20260508000505 | 42 | 283 | 0.0 | 0.0 | 0.00 | 0.00 | 0.00 | 97 | 1016.6 |
| 20260508000005 | 42 | 283 | 0.0 | 0.0 | 0.00 | 0.00 | 0.00 | 97 | 1016.6 |
| 20260507234505 | 42 | 283 | 0.0 | 0.0 | 0.00 | 0.00 | 0.00 | 97 | 1016.6 |
| 20260507234005 | 42 | 283 | 0.0 | 0.0 | 0.00 | 0.00 | 0.00 | 97 | 1016.6 |
| 20260507233505 | 43 | 283 | 0.0 | 0.0 | 0.00 | 0.00 | 0.00 | 97 | 1016.6 |
| 20260507233005 | 43 | 283 | 0.0 | 0.0 | 0.00 | 0.00 | 0.00 | 97 | 1016.6 |
| 20260507231506 | 43 | 283 | 0.0 | 0.0 | 0.00 | 0.00 | 0.00 | 97 | 1016.6 |
| 20260507231005 | 43 | 283 | 0.0 | 0.0 | 0.00 | 0.00 | 0.00 | 97 | 1016.9 |
| 20260507230504 | 43 | 283 | 0.0 | 0.0 | 0.00 | 0.00 | 0.00 | 97 | 1016.9 |
| 20260507230006 | 44 | 283 | 0.0 | 1.7 | 0.00 | 0.00 | 0.00 | 97 | 1016.8 |
| 20260507224505 | 43 | 283 | 0.0 | 0.0 | 0.00 | 0.00 | 0.00 | 96 | 1016.8 |
| 20260507223505 | 43 | 283 | 0.0 | 0.0 | 0.00 | 0.00 | 0.00 | 96 | 1016.8 |
| 20260507221506 | 44 | 283 | 0.0 | 0.0 | 0.00 | 0.00 | 0.00 | 96 | 1016.9 |
| 20260507220504 | 44 | 283 | 0.0 | 0.0 | 0.00 | 0.00 | 0.00 | 95 | 1016.6 |
| 20260507220005 | 44 | 284 | 0.0 | 0.0 | 0.00 | 0.08 | 0.00 | 95 | 1016.6 |
| 20260507214505 | 45 | 284 | 0.0 | 0.0 | 0.00 | 0.08 | 0.00 | 95 | 1016.6 |
| 20260507214005 | 46 | 284 | 0.0 | 0.0 | 0.00 | 0.08 | 0.00 | 95 | 1016.6 |
| 20260507213505 | 46 | 284 | 0.0 | 0.0 | 0.00 | 0.08 | 0.00 | 94 | 1016.4 |
| 20260507213005 | 46 | 284 | 0.0 | 0.0 | 0.00 | 0.08 | 0.00 | 94 | 1016.6 |
| 20260507211506 | 47 | 284 | 0.0 | 0.0 | 0.00 | 0.08 | 0.00 | 93 | 1016.3 |
| 20260507211005 | 47 | 284 | 0.0 | 0.0 | 0.00 | 0.08 | 0.00 | 93 | 1016.4 |
| 20260507210505 | 48 | 284 | 0.0 | 0.0 | 0.00 | 0.08 | 0.00 | 93 | 1016.3 |
| 20260507210005 | 48 | 284 | 0.0 | 0.0 | 0.00 | 0.08 | 0.00 | 93 | 1016.3 |
| 20260507204005 | 49 | 284 | 0.0 | 0.0 | 0.00 | 0.08 | 0.00 | 93 | 1016.3 |
| 20260507203505 | 49 | 284 | 0.0 | 0.0 | 0.00 | 0.08 | 0.00 | 92 | 1016.3 |
| 20260507203005 | 49 | 284 | 0.0 | 0.0 | 0.00 | 0.08 | 0.00 | 92 | 1016.3 |
| 20260507201505 | 49 | 284 | 0.0 | 0.0 | 0.00 | 0.08 | 0.00 | 92 | 1015.9 |
| 20260507201005 | 49 | 284 | 0.0 | 0.0 | 0.00 | 0.08 | 0.00 | 92 | 1015.9 |
| 20260507200505 | 49 | 284 | 0.0 | 0.0 | 0.00 | 0.08 | 0.00 | 92 | 1016.0 |
| 20260507200005 | 50 | 284 | 0.0 | 0.0 | 0.00 | 0.08 | 0.00 | 91 | 1015.9 |
| 20260507194505 | 49 | 284 | 0.0 | 0.0 | 0.00 | 0.08 | 0.00 | 91 | 1015.9 |
| 20260507194005 | 49 | 284 | 0.0 | 0.0 | 0.00 | 0.08 | 0.00 | 91 | 1015.9 |
| 20260507193506 | 49 | 284 | 0.0 | 0.0 | 0.00 | 0.08 | 0.00 | 91 | 1015.6 |
| 20260507193005 | 49 | 284 | 0.0 | 0.0 | 0.00 | 0.08 | 0.00 | 91 | 1015.6 |
| 20260507191505 | 50 | 284 | 0.0 | 0.0 | 0.00 | 0.08 | 0.00 | 90 | 1015.6 |
| 20260507191005 | 50 | 284 | 0.0 | 0.0 | 0.00 | 0.08 | 0.00 | 90 | 1015.6 |
| 20260507190505 | 50 | 284 | 0.0 | 0.0 | 0.00 | 0.08 | 0.00 | 90 | 1015.6 |
| 20260507190005 | 50 | 284 | 0.0 | 0.0 | 0.00 | 0.08 | 0.00 | 89 | 1015.6 |
| 20260507184505 | 51 | 284 | 0.0 | 1.7 | 0.00 | 0.08 | 0.00 | 88 | 1015.6 |
| 20260507184005 | 51 | 284 | 0.9 | 1.7 | 0.00 | 0.08 | 0.00 | 88 | 1015.3 |
| 20260507183005 | 52 | 285 | 1.7 | 2.6 | 0.00 | 0.08 | 0.00 | 87 | 1015.4 |
| 20260507181505 | 54 | 285 | 0.0 | 0.0 | 0.00 | 0.08 | 0.00 | 86 | 1015.1 |
| 20260507180005 | 55 | 285 | 0.9 | 1.7 | 0.00 | 0.08 | 0.00 | 83 | 1015.1 |
| 20260507174505 | 55 | 285 | 0.0 | 0.0 | 0.00 | 0.08 | 0.00 | 81 | 1015.1 |
| 20260507173505 | 55 | 285 | 0.0 | 2.6 | 0.00 | 0.08 | 0.00 | 80 | 1015.2 |
| 20260507173005 | 55 | 286 | 1.7 | 2.6 | 0.00 | 0.08 | 0.00 | 79 | 1015.2 |
| 20260507170504 | 58 | 292 | 0.0 | 1.7 | 0.00 | 0.08 | 0.00 | 69 | 1014.9 |
| 20260507170007 | 58 | 297 | 1.7 | 4.3 | 0.00 | 0.08 | 0.00 | 68 | 1014.9 |
| 20260507164006 | 62 | 280 | 1.7 | 2.6 | 0.00 | 0.08 | 0.00 | 60 | 1014.9 |
| 20260507163505 | 60 | 239 | 0.0 | 0.0 | 0.00 | 0.08 | 0.00 | 62 | 1014.9 |
| 20260507163005 | 59 | 239 | 0.0 | 2.6 | 0.00 | 0.08 | 0.00 | 66 | 1014.9 |
| 20260507161005 | 60 | 253 | 0.0 | 1.7 | 0.00 | 0.08 | 0.00 | 65 | 1015.0 |
| 20260507160504 | 58 | 234 | 0.9 | 1.7 | 0.00 | 0.08 | 0.00 | 65 | 1014.9 |
| 20260507160005 | 58 | 286 | 0.9 | 2.6 | 0.00 | 0.08 | 0.00 | 70 | 1015.2 |
| 20260507154005 | 58 | 248 | 0.0 | 0.0 | 0.00 | 0.08 | 0.00 | 74 | 1015.2 |
| 20260507153504 | 57 | 250 | 0.9 | 2.6 | 0.00 | 0.08 | 0.00 | 73 | 1015.2 |
| 20260507153005 | 56 | 225 | 0.0 | 2.6 | 0.00 | 0.08 | 0.00 | 75 | 1015.2 |
| 20260507151505 | 57 | 289 | 1.7 | 2.6 | 0.00 | 0.08 | 0.00 | 72 | 1015.5 |